Fort Leonard Wood, MO

2:13 AM CDT on September 22, 2017 (GMT -0500)
Waynesville Regional At Forney Field

Weather History for KTBN - October, 2012

Change the Weather History Date:

Monday, October 8, 2012

  Actual Average Record
Temperature  
Mean Temperature 45 °F -  
Max Temperature 59 °F 69 °F 83 °F (2015)
Min Temperature 32 °F 50 °F 32 °F (2012)
Degree Days  
Heating Degree Days 20    
Moisture  
Dew Point 35 °F    
Average Humidity 70    
Maximum Humidity 99    
Minimum Humidity 39    
Precipitation  
Precipitation 0.00 in - - ()
Sea Level Pressure  
Sea Level Pressure 30.15 in    
Wind  
Wind Speed 4 mph (SSW)    
Max Wind Speed 13 mph    
Max Gust Speed 17 mph    
Visibility 10 miles    
Events      
Averages and records for this station are not official NWS values.
T = Trace of Precipitation, MM = Missing Value Source: NWS Daily Summary

Daily Weather History Graph

Daily Weather History Graph

Search for Another Location

Airport or City:

Trip Planner

Search our weather history database for the weather conditions in past years. The results will help you decide how hot, cold, wet, or windy it might be!

Date:

Astronomy

Oct. 08, 2012 Rise Set
Actual Time 7:10 AM CDT 6:40 PM CDT
Civil Twilight 6:44 AM CDT 7:06 PM CDT
Nautical Twilight 6:14 AM CDT 7:36 PM CDT
Astronomical Twilight 5:43 AM CDT 8:07 PM CDT
Moon No Moon Rise 2:23 PM CDT (10/8)
Length of Visible Light 12h 22m
Length of Day
11h 29m
Last Quarter, 46% of the Moon is Illuminated
Oct 8
Last Quarter
Oct 15
New
Oct 21
First Quarter
Oct 29
Full
Nov 6
Last Quarter

Hourly Weather History & Observations

Time (CDT) Temp. Windchill Dew Point Humidity Pressure Visibility Wind Dir Wind Speed Gust Speed Precip Events Conditions
12:55 AM 37.4 °F 33.8 °F 35.6 °F 93% 30.19 in 10.0 mi SW 4.6 mph - N/A   Clear
1:55 AM 36.3 °F 33.7 °F 34.9 °F 95% 30.19 in 10.0 mi SW 3.5 mph - N/A   Clear
2:55 AM 36.0 °F 33.3 °F 34.3 °F 94% 30.19 in 10.0 mi SW 3.5 mph - N/A   Clear
3:55 AM 34.9 °F - 33.8 °F 96% 30.19 in 10.0 mi Calm Calm - N/A   Clear
4:55 AM 32.9 °F 29.8 °F 32.5 °F 99% 30.20 in 10.0 mi SW 3.5 mph - N/A   Clear
5:55 AM 33.4 °F - 32.7 °F 97% 30.20 in 10.0 mi Calm Calm - N/A   Clear
6:55 AM 32.0 °F - 31.8 °F 99% 30.21 in 10.0 mi Calm Calm - N/A   Clear
7:55 AM 35.8 °F 33.0 °F 33.4 °F 91% 30.22 in 10.0 mi SSW 3.5 mph - N/A   Clear
8:55 AM 40.3 °F 36.3 °F 35.6 °F 83% 30.23 in 10.0 mi Variable 5.8 mph - N/A   Clear
9:55 AM 46.4 °F 44.3 °F 37.0 °F 70% 30.22 in 10.0 mi Variable 4.6 mph - N/A   Clear
10:55 AM 52.3 °F - 34.5 °F 51% 30.21 in 10.0 mi Variable 5.8 mph - N/A   Clear
11:55 AM 54.9 °F - 32.2 °F 42% 30.19 in 10.0 mi Variable 5.8 mph - N/A   Clear
12:55 PM 57.4 °F - 33.1 °F 40% 30.17 in 10.0 mi South 12.7 mph - N/A   Clear
1:55 PM 57.6 °F - 34.2 °F 41% 30.14 in 10.0 mi Variable 4.6 mph - N/A   Clear
2:55 PM 58.8 °F - 35.1 °F 41% 30.12 in 10.0 mi SSW 8.1 mph 17.3 mph N/A   Clear
3:55 PM 58.8 °F - 34.0 °F 39% 30.10 in 10.0 mi Variable 6.9 mph - N/A   Clear
4:55 PM 58.6 °F - 34.0 °F 40% 30.09 in 10.0 mi SSW 8.1 mph - N/A   Clear
5:55 PM 57.4 °F - 36.0 °F 45% 30.07 in 10.0 mi Variable 5.8 mph - N/A   Clear
6:55 PM 51.6 °F - 38.1 °F 60% 30.07 in 10.0 mi South 4.6 mph - N/A   Clear
7:55 PM 48.6 °F - 37.9 °F 67% 30.08 in 10.0 mi South 4.6 mph - N/A   Clear
8:55 PM 48.0 °F - 38.7 °F 70% 30.08 in 10.0 mi South 5.8 mph - N/A   Clear
9:55 PM 46.2 °F 43.3 °F 39.2 °F 76% 30.08 in 10.0 mi South 5.8 mph - N/A   Clear
10:55 PM 46.2 °F 43.3 °F 39.7 °F 78% 30.08 in 10.0 mi South 5.8 mph - N/A   Clear
11:55 PM 46.4 °F 43.5 °F 40.5 °F 80% 30.07 in 10.0 mi Variable 5.8 mph - N/A   Clear